FW1609 Weather Reports


time (UTC)temp
F
wind
direction
speed
knots
gust
knots
rain 1hr
in
rain 24hr
in
rain mn
in
humidity
%
barometer
mb
20260505063101 63 239 6.1 9.6 0.00 0.03 0.03 49 1015.9
20260505061552 63 253 7.0 11.3 0.00 0.03 0.03 49 1015.7
20260505060051 64 241 8.7 11.3 0.00 0.03 0.03 48 1016.0
20260505054552 64 216 5.2 13.0 0.00 0.03 0.03 49 1016.0
20260505053050 64 243 8.7 11.3 0.00 0.03 0.03 49 1015.6
20260505051544 64 271 2.6 9.6 0.00 0.03 0.03 51 1015.6
20260505041534 64 226 3.5 11.3 0.00 0.03 0.03 49 1015.6
20260505040032 64 285 4.3 11.3 0.00 0.03 0.03 50 1015.8
20260505034538 64 267 6.1 12.2 0.00 0.03 0.03 51 1015.8
20260505033032 63 216 4.3 13.0 0.00 0.03 0.03 52 1016.0
20260505031527 63 245 7.0 14.8 0.00 0.03 0.03 51 1016.0
20260505030041 63 209 3.5 12.2 0.00 0.03 0.03 52 1016.1
20260505024524 63 247 9.6 14.8 0.01 0.03 0.03 54 1016.2
20260505023025 63 213 4.3 10.4 0.01 0.03 0.03 55 1016.4
20260505021521 62 239 7.0 10.4 0.01 0.03 0.03 56 1016.8
20260505020018 62 185 7.0 12.2 0.01 0.04 0.03 58 1017.0
20260505014519 62 209 8.7 12.2 0.00 0.03 0.02 57 1017.2
20260505013019 62 198 4.3 10.4 0.00 0.03 0.02 57 1017.5
20260505011546 61 195 4.3 8.7 0.00 0.03 0.02 61 1017.5
20260505004556 59 209 5.2 13.9 0.00 0.03 0.02 65 1017.7
20260505003034 58 224 3.5 8.7 0.00 0.03 0.02 67 1017.8
20260505001536 58 180 0.9 6.1 0.00 0.03 0.02 70 1017.8
20260505000026 57 149 2.6 5.2 0.00 0.04 0.02 72 1017.8
20260504234520 56 235 2.6 7.0 0.00 0.04 0.02 72 1017.8
20260504233020 55 212 0.0 3.5 0.00 0.04 0.02 75 1017.9
20260504231513 54 151 1.7 4.3 0.00 0.04 0.02 81 1017.8
20260504230010 52 300 0.0 1.7 0.00 0.05 0.02 87 1017.9
20260504224501 50 300 0.0 1.7 0.00 0.05 0.02 91 1017.7
20260504223057 50 300 0.0 0.0 0.01 0.05 0.02 93 1017.8
20260504221634 48 301 0.0 0.0 0.01 0.05 0.02 93 1017.7
20260504220048 47 301 0.0 0.0 0.01 0.05 0.02 92 1017.5
20260504214543 46 301 0.0 0.0 0.01 0.05 0.02 93 1017.1
20260504213040 44 301 0.0 0.0 0.00 0.04 0.02 92 1016.8
20260504211534 43 301 0.0 0.0 0.00 0.04 0.02 90 1016.6
20260504210026 42 301 0.0 0.0 0.00 0.04 0.02 90 1016.6
20260504204522 42 301 0.0 0.0 0.00 0.04 0.02 90 1016.3
20260504203016 43 301 0.0 0.0 0.00 0.04 0.02 90 1015.9
20260504201516 43 301 0.0 0.0 0.00 0.04 0.02 90 1015.8
20260504200015 43 301 0.9 2.6 0.00 0.04 0.02 89 1015.9
20260504194517 43 301 1.7 3.5 0.00 0.04 0.02 89 1015.6
20260504193044 45 301 0.0 0.0 0.00 0.04 0.02 89 1015.3
20260504191604 45 301 0.0 0.0 0.00 0.04 0.02 89 1015.2
20260504190029 45 301 0.0 0.0 0.00 0.04 0.02 88 1015.2
20260504184540 46 301 0.0 0.0 0.00 0.04 0.02 88 1015.1
20260504183024 48 301 0.9 2.6 0.00 0.04 0.02 89 1015.0
20260504181521 47 301 1.7 3.5 0.00 0.04 0.02 89 1014.9
20260504180016 48 289 1.7 2.6 0.00 0.04 0.02 87 1014.8
20260504174512 48 289 0.0 0.0 0.00 0.04 0.02 87 1014.7
20260504173014 49 289 0.0 0.0 0.00 0.04 0.02 86 1014.6
20260504171506 50 289 0.0 0.9 0.00 0.04 0.02 85 1014.8
20260504081518 62 337 2.6 7.0 0.01 0.03 0.01 81 1013.7